Regional Weather Roundup
Issued by NWS

Home | Current Version | Previous Version | Graphics & Text | Print | Product List | Glossary On
Versions: 1 2 3 4 5 6 7 8 9 10 11 12 13 14 15 16 17 18 19 20 21 22 23 24 25 26 27
000
ASUS45 KBOI 240910
RWRID

IDAHO REGIONAL WEATHER ROUNDUP
NATIONAL WEATHER SERVICE BOISE ID
300 AM MDT WED MAY 24 2017

NOTE: "FAIR" INDICATES FEW OR NO CLOUDS BELOW 12000 FEET
WITH NO SIGNIFICANT WEATHER AND/OR OBSTRUCTIONS TO VISIBILITY

IDZ012-014-241000-
SOUTHWEST IDAHO


CITY           SKY/WX    TMP DP  RH WIND       PRES   REMARKS
BOISE          PTCLDY    65  42  43 S12       29.78R
CALDWELL       MOCLDY    64  47  53 CALM      29.76S
MOUNTAIN HOME  CLEAR     58  45  60 E6        29.76F
$$

IDZ016-017-241000-
SOUTHCENTRAL IDAHO


CITY           SKY/WX    TMP DP  RH WIND       PRES   REMARKS
BURLEY         CLEAR     60  40  47 SW13      29.84F
JEROME         CLEAR     61  40  45 SE9       29.84F
TWIN FALLS     CLEAR     63  41  44 S14       29.83F
$$

IDZ019>023-241000-
SOUTHEAST IDAHO


CITY           SKY/WX    TMP DP  RH WIND       PRES   REMARKS
IDAHO FALLS    CLEAR     51  40  65 SW10      29.87F
POCATELLO      CLEAR     62  38  40 S13       29.87F
REXBURG        CLEAR     59  36  42 S9        29.86F
$$

IDZ006-010-011-018-031-032-241000-
CENTRAL IDAHO MOUNTAINS


CITY           SKY/WX    TMP DP  RH WIND       PRES   REMARKS
MCCALL         CLOUDY    50  42  74 CALM      29.86F
HAILEY         CLEAR     52  39  62 NW10      29.95S
STANLEY          N/A     46  36  68 VRB3      29.96F
SALMON         CLOUDY    52  43  71 CALM      29.74F
CHALLIS        CLEAR     55  39  54 NW5       29.84F
$$

IDZ002-004-006-007-026-241000-
NORTHERN IDAHO


CITY           SKY/WX    TMP DP  RH WIND       PRES   REMARKS
LEWISTON       CLEAR     64  38  38 W9        29.73R
LOWELL           N/A     60  54  80 CALM      29.71S
COEUR D`ALENE  CLEAR     59  41  51 SW14G26   29.66R
MULLAN PASS    CLEAR     48  28  46 SW20G32   29.73F
$$




USA.gov is the U.S. government's official web portal to all federal, state and local government web resources and services.